Other Public Products
Issued by NWS Charleston, SC

Current Version | Previous Version | Graphics & Text | Print | Product List | Glossary On
Versions: 1 2 3 4 5 6 7 8 9 10 11 12 13 14 15 16 17 18 19 20 21 22 23 24 25 26 27 28 29 30 31 32 33 34 35 36 37 38 39 40 41 42 43 44 45 46 47 48 49 50
000 FPUS82 KCHS 220841 OPUCHS TEST...KCHS/KSAV Gateway Observations...TEST National Weather Service Charleston SC 400 AM EDT FRI SEP 22 2017 NOTE: "fair" indicates few or no clouds below 12,000 feet with no significant weather and/or obstructions to visibility. SCZ050-WAZ558-NCZ071-TXZ119-213-PAZ071-DCZ001-FLZ074-172-MI076- NYZ176-178-MAZ016-IL014-TNZ027-NJZ106-GAZ044-MD014-220900- ...Gateway Observations for Charleston International... CITY SKY/WX TMP DP RH WIND PRES REMARKS Chas Airport PTCLDY 68 68 100 NW5 30.00S Seattle CLOUDY 53 47 79 SE5 30.02R Charlotte CLEAR 72 66 81 CALM 30.05F Dallas DFW CLEAR 77 71 82 S12 29.92S Dallas Love PTCLDY 77 70 79 S14 29.94R Philladelphia CLOUDY 72 60 66 N10 30.01F Wash National CLOUDY 72 66 81 N8 30.03S Baltimore CLOUDY 67 65 93 CALM 30.02S Miami MOCLDY 80 77 90 CALM 29.88F Detroit PTCLDY 70 65 84 CALM 30.10S Newark CLOUDY 69 50 50 N12 30.00F Laguardia CLOUDY 69 51 52 N10 29.98F J F K CLOUDY 69 48 47 N18 29.97F Boston Logan CLOUDY 61 54 77 N24G35 30.00S Ft. Lauderdale PTCLDY 82 77 84 E7 29.87F HX 90 Chicago O`Hare CLOUDY 77 68 73 S5 30.03R Chicago Midway MOCLDY 79 68 69 S7 30.03S Houston Bush PTCLDY 73 72 96 CALM 29.94S Houston Hobby PTCLDY 77 74 90 E3 29.93S Nashville CLEAR 69 67 93 CALM 30.04F Atlanta PTCLDY 71 65 81 NE7 30.03F $$ GAZ044-118-TXZ119-213-NCZ071-DCZ001-MDZ014-506-PAZ021-071-NJZ106- NYZ176-178-MAZ106-OHZ011-021-055-MIZ076-KYZ091-ILZ014-INZ047- MNZ060-ONZ431-220900- ...Gateway Observations for Savannah International... CITY SKY/WX TMP DP RH WIND PRES REMARKS Savannah Arpt PTCLDY 71 70 96 N3 30.00S FOG Atlanta PTCLDY 71 65 81 NE7 30.03F Charlotte CLEAR 72 66 81 CALM 30.05F Dallas DFW CLEAR 77 71 82 S12 29.92S Houston Bush PTCLDY 73 72 96 CALM 29.94S Wash National CLOUDY 72 66 81 N8 30.03S Wash Dulles CLOUDY 67 64 90 NW5 30.04F Baltimore CLOUDY 67 65 93 CALM 30.02S Philadelphia CLOUDY 72 60 66 N10 30.01F Newark CLOUDY 69 50 50 N12 30.00F Laguardia CLOUDY 69 51 52 N10 29.98F J F K CLOUDY 69 48 47 N18 29.97F Boston CLOUDY 61 54 77 N24G35 30.00S Pittsburg PTCLDY 63 61 93 CALM 30.11S Akron CLEAR 67 61 81 CALM 30.11S Cleveland PTCLDY 68 62 81 CALM 30.11S Cincinnati PTCLDY 71 71 100 CALM 30.08F Columbus PTCLDY 65 65 100 CALM 30.09R Detroit PTCLDY 70 65 84 CALM 30.10S Chicago O`Hare CLOUDY 77 68 73 S5 30.03R Minneapolis CLEAR 75 70 84 SE9 29.82F Indianapolis PTCLDY 74 69 85 CALM 30.07S Toronto Canada CLEAR 66 61 82 NE2 30.12F $$

USA.gov is the U.S. government's official web portal to all federal, state and local government web resources and services.